Temp
-30 -29 -29 -29 -29 -28 -28 -28 -28 -27 -27 -27 -27 -27 -26 -26 -26 -25 -25 -25 -24 -24 -24 -24 -24 -23 -23 -23 -22 -23 -23 -23 -23 -24 -24 -23 -22 -22 -22 -22 -22 -22 -21 -21 -21 -21 -21 -21 -20 -20 -20 -20 -20 -20 -20 -20 -20 -20 -20 -20 -20 -20 -19 -19 -19 -19 -18 -18 -18 -18 -18 -17 -17 -17
-31 -31 -30 -30 -30 -29 -29 -29 -28 -28 -28 -28 -27 -27 -27 -26 -26 -26 -26 -25 -25 -24 -24 -24 -24 -24 -23 -23 -23 -22 -23 -23 -23 -24 -24 -24 -23 -23 -23 -22 -22 -22 -22 -22 -22 -21 -21 -21 -21 -21 -20 -20 -20 -20 -20 -20 -20 -20 -20 -20 -20 -20 -19 -19 -19 -19 -18 -18 -18 -18 -18 -18 -18 -18
-33 -32 -32 -31 -31 -31 -31 -30 -30 -29 -29 -28 -28 -28 -27 -27 -27 -26 -26 -25 -25 -25 -25 -24 -24 -24 -23 -23 -23 -23 -23 -23 -23 -24 -24 -24 -24 -23 -23 -23 -23 -22 -22 -22 -22 -22 -22 -21 -21 -21 -21 -21 -21 -20 -20 -20 -20 -20 -20 -20 -20 -20 -20 -19 -20 -19 -19 -19 -19 -19 -19 -19 -19 -18
-34 -34 -33 -33 -32 -32 -32 -31 -31 -30 -30 -30 -29 -29 -28 -28 -27 -27 -26 -26 -25 -25 -25 -25 -24 -24 -24 -24 -24 -23 -23 -23 -23 -24 -24 -24 -24 -24 -23 -23 -23 -23 -23 -22 -22 -22 -22 -22 -21 -21 -21 -21 -21 -21 -21 -21 -20 -20 -20 -20 -20 -20 -20 -20 -20 -20 -19 -19 -19 -19 -19 -19 -19 -19
-35 -34 -34 -34 -33 -33 -33 -32 -32 -32 -31 -31 -30 -30 -29 -29 -28 -28 -27 -26 -26 -25 -25 -25 -24 -24 -24 -24 -24 -24 -24 -23 -24 -24 -24 -24 -24 -24 -24 -23 -23 -23 -23 -23 -23 -23 -23 -22 -22 -22 -21 -21 -21 -21 -21 -21 -21 -20 -20 -21 -20 -20 -20 -20 -20 -20 -19 -19 -19 -19 -19 -19 -19 -19
-35 -35 -35 -35 -34 -34 -34 -33 -33 -33 -32 -32 -31 -31 -30 -30 -29 -29 -28 -28 -27 -26 -26 -26 -25 -25 -25 -24 -24 -24 -24 -24 -24 -24 -24 -24 -24 -24 -24 -24 -24 -23 -23 -23 -23 -23 -23 -23 -23 -22 -22 -21 -21 -21 -21 -21 -21 -21 -21 -21 -21 -21 -20 -20 -20 -20 -20 -19 -19 -20 -20 -20 -20 -20
-36 -35 -35 -35 -35 -35 -34 -34 -34 -34 -34 -33 -33 -32 -32 -31 -31 -30 -30 -29 -29 -28 -27 -27 -26 -26 -25 -25 -25 -24 -24 -24 -24 -24 -24 -24 -24 -24 -24 -24 -24 -24 -24 -23 -23 -23 -24 -24 -23 -23 -22 -22 -22 -21 -21 -21 -21 -21 -21 -21 -21 -21 -21 -20 -20 -20 -20 -20 -20 -20 -20 -20 -20 -20
-35 -35 -35 -36 -36 -35 -35 -35 -35 -35 -35 -34 -34 -33 -33 -33 -32 -32 -31 -31 -30 -29 -28 -28 -28 -27 -27 -27 -26 -25 -24 -24 -24 -24 -24 -24 -24 -24 -24 -24 -24 -24 -24 -24 -24 -24 -24 -24 -24 -23 -23 -23 -22 -22 -22 -22 -22 -22 -22 -22 -22 -21 -21 -21 -21 -21 -20 -20 -20 -20 -20 -20 -20 -20
-35 -35 -35 -35 -36 -36 -36 -36 -36 -36 -36 -35 -35 -35 -34 -34 -34 -33 -33 -32 -32 -31 -30 -30 -29 -29 -29 -28 -28 -27 -26 -25 -25 -25 -25 -24 -24 -24 -24 -24 -24 -24 -24 -24 -24 -24 -24 -24 -24 -24 -24 -23 -23 -23 -23 -22 -22 -22 -22 -22 -22 -22 -22 -22 -21 -21 -21 -21 -21 -21 -21 -20 -20 -20
-34 -35 -35 -35 -35 -36 -36 -36 -36 -37 -36 -36 -36 -35 -35 -35 -34 -34 -34 -34 -33 -33 -32 -31 -31 -30 -30 -30 -29 -29 -28 -27 -26 -26 -26 -25 -25 -24 -24 -24 -24 -25 -25 -24 -24 -24 -24 -24 -24 -24 -24 -24 -24 -24 -24 -23 -23 -22 -22 -23 -23 -22 -22 -22 -22 -22 -22 -22 -22 -21 -21 -21 -21 -21
-34 -34 -35 -35 -35 -35 -36 -36 -36 -37 -37 -37 -37 -36 -36 -36 -35 -35 -35 -35 -34 -34 -33 -33 -32 -32 -31 -31 -31 -30 -29 -28 -27 -27 -27 -26 -26 -26 -25 -25 -25 -25 -25 -25 -25 -24 -24 -24 -24 -24 -24 -24 -24 -24 -24 -24 -24 -23 -23 -23 -23 -23 -23 -23 -23 -23 -22 -22 -22 -22 -22 -22 -22 -21
-34 -34 -34 -35 -35 -35 -35 -36 -36 -37 -37 -37 -37 -37 -37 -37 -36 -36 -36 -36 -35 -35 -35 -34 -33 -33 -33 -33 -32 -31 -30 -30 -28 -28 -28 -27 -27 -27 -27 -26 -26 -25 -25 -25 -25 -25 -25 -25 -25 -25 -25 -25 -25 -25 -25 -24 -24 -24 -24 -24 -23 -23 -23 -23 -23 -23 -23 -23 -23 -22 -22 -23 -23 -22
-34 -34 -34 -35 -35 -35 -35 -35 -36 -36 -37 -37 -37 -37 -37 -37 -37 -37 -37 -37 -36 -36 -36 -35 -34 -34 -34 -34 -33 -32 -31 -31 -30 -29 -28 -28 -28 -28 -28 -27 -27 -26 -26 -26 -25 -25 -25 -25 -25 -26 -26 -25 -25 -25 -25 -24 -24 -25 -24 -24 -24 -24 -24 -23 -23 -23 -23 -23 -23 -23 -23 -23 -23 -23
-34 -34 -34 -35 -35 -35 -35 -35 -36 -36 -36 -37 -37 -37 -37 -37 -37 -37 -37 -37 -37 -37 -37 -36 -36 -36 -36 -35 -34 -34 -32 -32 -31 -30 -29 -29 -28 -28 -28 -28 -27 -27 -26 -26 -26 -26 -26 -25 -25 -26 -26 -26 -26 -25 -25 -25 -25 -25 -24 -24 -25 -25 -24 -24 -24 -24 -24 -24 -24 -24 -23 -23 -23 -23
-34 -34 -34 -34 -35 -35 -35 -35 -35 -36 -36 -36 -36 -37 -37 -37 -37 -37 -37 -38 -38 -38 -38 -37 -37 -37 -37 -36 -35 -35 -34 -33 -32 -31 -30 -30 -29 -29 -29 -28 -28 -28 -27 -27 -26 -26 -26 -26 -26 -26 -26 -26 -26 -26 -25 -25 -25 -25 -25 -24 -25 -25 -25 -25 -25 -24 -24 -24 -24 -24 -24 -24 -24 -24
-33 -34 -34 -34 -34 -35 -35 -35 -35 -35 -36 -36 -36 -36 -37 -37 -37 -37 -37 -37 -37 -37 -38 -38 -37 -37 -37 -36 -36 -35 -34 -34 -33 -32 -32 -31 -30 -30 -29 -29 -29 -28 -28 -27 -27 -27 -27 -27 -26 -26 -26 -26 -26 -26 -26 -25 -25 -25 -25 -25 -25 -25 -25 -25 -25 -25 -25 -24 -24 -24 -24 -24 -24 -24
-33 -33 -34 -34 -34 -34 -34 -35 -35 -35 -36 -36 -36 -36 -36 -37 -37 -37 -37 -37 -37 -37 -37 -37 -37 -37 -37 -36 -36 -35 -35 -35 -35 -34 -33 -33 -32 -31 -30 -30 -30 -29 -28 -28 -28 -27 -27 -27 -27 -27 -27 -27 -26 -26 -26 -25 -25 -25 -25 -25 -25 -25 -25 -25 -25 -25 -25 -25 -25 -25 -24 -24 -24 -24
-33 -33 -34 -34 -34 -34 -34 -34 -35 -35 -35 -35 -36 -36 -36 -36 -36 -37 -37 -37 -37 -37 -37 -37 -37 -37 -36 -36 -36 -36 -35 -35 -35 -35 -35 -34 -33 -32 -32 -31 -31 -30 -29 -29 -28 -28 -28 -28 -27 -27 -27 -27 -27 -26 -26 -26 -26 -25 -25 -25 -25 -25 -25 -25 -25 -25 -25 -25 -25 -25 -25 -25 -24 -24
-33 -33 -34 -34 -34 -34 -34 -34 -34 -35 -35 -35 -35 -35 -36 -36 -36 -36 -36 -37 -37 -37 -37 -37 -37 -37 -37 -36 -36 -36 -36 -35 -35 -35 -35 -35 -34 -33 -33 -32 -32 -31 -30 -29 -29 -28 -28 -28 -28 -28 -27 -27 -27 -27 -26 -26 -26 -26 -25 -25 -25 -25 -25 -25 -25 -25 -25 -25 -25 -25 -25 -25 -25 -25
-33 -34 -34 -34 -34 -34 -34 -34 -34 -34 -34 -34 -35 -35 -35 -35 -36 -36 -36 -36 -36 -36 -37 -37 -37 -37 -37 -37 -37 -36 -36 -35 -35 -35 -35 -35 -34 -34 -34 -33 -33 -32 -32 -30 -29 -29 -29 -28 -28 -28 -28 -28 -27 -27 -27 -26 -26 -26 -26 -26 -25 -26 -26 -25 -25 -25 -25 -25 -25 -25 -25 -25 -25 -25
-34 -34 -34 -34 -34 -34 -34 -34 -34 -34 -34 -34 -34 -35 -35 -35 -35 -35 -36 -36 -36 -36 -36 -36 -37 -37 -37 -37 -37 -36 -36 -35 -35 -35 -35 -35 -34 -34 -34 -33 -33 -33 -33 -32 -31 -30 -29 -29 -28 -28 -28 -28 -28 -28 -28 -27 -27 -26 -26 -26 -26 -26 -26 -26 -26 -25 -25 -26 -26 -25 -26 -26 -25 -25
-34 -34 -34 -34 -34 -34 -34 -34 -34 -34 -34 -34 -35 -35 -35 -35 -35 -35 -35 -35 -35 -36 -36 -36 -36 -36 -36 -36 -36 -36 -36 -35 -35 -35 -35 -35 -35 -34 -34 -34 -33 -33 -33 -33 -32 -31 -30 -29 -29 -29 -28 -28 -28 -28 -28 -28 -28 -27 -27 -27 -26 -26 -26 -26 -26 -26 -26 -26 -26 -26 -26 -26 -26 -26
-33 -34 -34 -34 -34 -34 -34 -34 -34 -34 -34 -34 -34 -35 -35 -35 -35 -35 -35 -35 -35 -35 -35 -35 -36 -36 -36 -36 -36 -36 -36 -35 -35 -35 -35 -35 -35 -35 -34 -34 -34 -33 -33 -33 -33 -32 -31 -31 -30 -29 -29 -29 -29 -29 -29 -29 -29 -28 -28 -27 -27 -27 -27 -27 -27 -26 -26 -26 -26 -26 -26 -26 -26 -26
-33 -33 -33 -33 -33 -33 -34 -34 -34 -34 -34 -34 -34 -34 -34 -35 -35 -35 -35 -35 -35 -35 -35 -35 -35 -35 -35 -36 -36 -36 -35 -35 -35 -35 -35 -35 -35 -35 -35 -34 -34 -34 -33 -33 -33 -33 -32 -32 -31 -31 -30 -29 -29 -29 -29 -29 -29 -29 -29 -28 -28 -28 -28 -28 -27 -27 -27 -27 -27 -26 -26 -26 -27 -26
-33 -33 -33 -33 -33 -33 -33 -34 -34 -34 -34 -34 -34 -34 -34 -35 -35 -35 -35 -35 -35 -35 -35 -35 -35 -35 -35 -35 -35 -35 -35 -35 -35 -35 -35 -35 -35 -35 -35 -35 -34 -34 -34 -34 -33 -33 -33 -32 -32 -32 -31 -30 -30 -30 -29 -29 -29 -29 -29 -29 -28 -28 -28 -28 -28 -27 -27 -27 -27 -27 -27 -27 -27 -27
-33 -33 -33 -33 -33 -34 -34 -34 -34 -34 -34 -34 -34 -34 -35 -35 -35 -34 -34 -35 -35 -35 -35 -35 -35 -35 -35 -35 -35 -35 -35 -35 -35 -35 -35 -35 -35 -35 -35 -35 -35 -34 -34 -34 -34 -33 -33 -33 -32 -32 -32 -31 -31 -30 -30 -30 -30 -29 -29 -29 -29 -29 -28 -28 -28 -27 -27 -27 -27 -27 -27 -27 -27 -27
-33 -33 -34 -34 -34 -34 -34 -34 -34 -34 -34 -34 -34 -34 -35 -35 -35 -35 -35 -35 -35 -35 -35 -35 -35 -35 -35 -35 -35 -35 -35 -35 -35 -35 -35 -35 -35 -35 -35 -35 -35 -35 -34 -34 -34 -34 -33 -33 -33 -32 -32 -32 -31 -31 -30 -30 -30 -30 -30 -29 -29 -29 -29 -28 -28 -28 -28 -28 -27 -27 -27 -27 -27 -27
-33 -33 -33 -34 -34 -34 -34 -34 -34 -34 -34 -34 -34 -34 -35 -35 -35 -35 -35 -35 -35 -35 -35 -35 -35 -35 -35 -35 -35 -35 -35 -35 -35 -35 -35 -35 -35 -35 -35 -35 -35 -35 -34 -34 -34 -34 -34 -33 -33 -33 -32 -32 -32 -32 -31 -31 -30 -30 -30 -30 -30 -29 -29 -29 -29 -29 -28 -28 -28 -28 -28 -27 -27 -27
-33 -33 -33 -34 -34 -34 -34 -34 -34 -34 -34 -34 -34 -34 -35 -35 -35 -35 -35 -35 -35 -35 -35 -35 -35 -35 -35 -35 -35 -35 -35 -35 -35 -34 -34 -34 -34 -35 -35 -35 -35 -35 -35 -35 -35 -34 -34 -34 -33 -33 -33 -33 -33 -32 -32 -31 -31 -31 -31 -30 -30 -30 -30 -29 -29 -29 -29 -28 -28 -28 -28 -28 -28 -28
-33 -33 -33 -34 -34 -34 -34 -34 -34 -34 -34 -34 -35 -35 -35 -36 -36 -36 -36 -36 -36 -35 -35 -35 -35 -35 -35 -35 -35 -35 -35 -35 -35 -34 -34 -34 -34 -34 -34 -34 -34 -34 -34 -34 -34 -34 -34 -34 -34 -33 -33 -33 -33 -33 -32 -32 -32 -31 -31 -31 -31 -31 -30 -30 -30 -29 -29 -29 -29 -28 -28 -28 -28 -28
-33 -33 -33 -34 -34 -34 -34 -34 -34 -34 -34 -34 -35 -35 -36 -36 -36 -36 -36 -36 -36 -36 -36 -36 -36 -35 -35 -35 -35 -35 -35 -35 -35 -35 -35 -34 -34 -34 -34 -34 -34 -34 -34 -34 -34 -34 -34 -33 -33 -33 -33 -33 -33 -33 -33 -32 -32 -32 -32 -31 -31 -31 -31 -30 -30 -30 -30 -29 -29 -29 -29 -29 -29 -29
-33 -33 -33 -33 -34 -34 -34 -34 -34 -34 -34 -34 -35 -35 -36 -36 -36 -36 -36 -36 -36 -36 -36 -36 -36 -36 -36 -35 -35 -35 -35 -35 -35 -35 -35 -35 -34 -34 -34 -34 -34 -34 -34 -34 -34 -34 -34 -34 -34 -33 -33 -33 -33 -33 -33 -33 -32 -32 -32 -31 -31 -31 -31 -30 -30 -30 -30 -30 -30 -29 -29 -29 -29 -29
-33 -33 -33 -33 -33 -33 -34 -34 -34 -34 -34 -34 -35 -35 -36 -36 -36 -36 -37 -37 -37 -36 -36 -36 -36 -36 -36 -36 -36 -35 -35 -35 -35 -35 -35 -35 -35 -34 -34 -34 -34 -34 -34 -34 -34 -34 -34 -34 -34 -34 -33 -33 -33 -33 -33 -32 -32 -32 -32 -32 -31 -31 -31 -31 -30 -30 -30 -30 -30 -30 -30 -30 -29 -29
-33 -33 -33 -33 -33 -33 -33 -34 -34 -34 -34 -34 -34 -35 -35 -36 -36 -36 -37 -37 -37 -36 -36 -36 -36 -36 -36 -36 -36 -36 -35 -35 -35 -35 -35 -35 -35 -35 -35 -34 -34 -34 -34 -34 -34 -34 -34 -34 -34 -34 -34 -33 -33 -33 -33 -33 -32 -32 -32 -32 -32 -31 -31 -31 -31 -31 -30 -30 -30 -30 -30 -30 -30 -30
-33 -33 -33 -33 -33 -33 -33 -33 -34 -34 -34 -34 -34 -34 -35 -35 -36 -36 -37 -37 -36 -36 -36 -36 -36 -36 -36 -36 -36 -36 -36 -36 -35 -35 -35 -35 -35 -35 -35 -35 -35 -34 -34 -34 -34 -34 -34 -34 -34 -34 -33 -33 -33 -33 -33 -33 -33 -33 -32 -32 -32 -32 -32 -31 -31 -31 -31 -31 -30 -30 -30 -30 -30 -30
-33 -33 -33 -33 -33 -33 -33 -33 -33 -33 -33 -34 -34 -34 -34 -35 -35 -36 -36 -36 -36 -36 -36 -36 -36 -36 -36 -36 -36 -36 -36 -36 -35 -35 -35 -35 -35 -35 -35 -35 -35 -34 -34 -34 -34 -34 -34 -34 -34 -34 -34 -33 -33 -33 -33 -33 -33 -33 -33 -33 -33 -33 -32 -32 -32 -31 -31 -31 -31 -30 -30 -30 -30 -30
-33 -33 -33 -33 -33 -33 -33 -33 -33 -33 -33 -33 -34 -34 -34 -34 -35 -35 -36 -36 -36 -36 -36 -36 -36 -36 -36 -36 -36 -36 -36 -36 -35 -35 -35 -35 -35 -35 -35 -35 -34 -34 -34 -34 -34 -34 -34 -34 -34 -34 -34 -34 -34 -34 -34 -34 -33 -33 -33 -33 -33 -33 -33 -32 -32 -32 -32 -32 -31 -31 -31 -31 -30 -30
-33 -33 -33 -33 -33 -33 -33 -33 -33 -33 -33 -33 -33 -33 -34 -34 -34 -35 -35 -35 -36 -36 -36 -36 -36 -36 -36 -36 -36 -36 -36 -36 -35 -35 -35 -35 -35 -35 -35 -35 -34 -34 -34 -34 -34 -34 -34 -34 -34 -34 -34 -34 -34 -34 -34 -34 -34 -33 -33 -33 -33 -33 -33 -33 -32 -32 -32 -32 -32 -32 -32 -32 -31 -31
-32 -32 -32 -32 -32 -32 -32 -33 -33 -33 -33 -33 -33 -33 -33 -34 -34 -34 -34 -35 -35 -35 -35 -36 -36 -36 -36 -36 -36 -36 -36 -36 -35 -35 -35 -35 -35 -35 -35 -35 -34 -34 -34 -34 -34 -34 -34 -34 -34 -34 -34 -34 -34 -34 -34 -34 -34 -34 -34 -33 -33 -33 -33 -33 -33 -33 -33 -33 -32 -32 -32 -32 -32 -32
-32 -32 -32 -32 -32 -32 -32 -32 -32 -32 -32 -33 -33 -33 -33 -33 -33 -34 -34 -34 -34 -35 -35 -35 -35 -35 -35 -36 -36 -36 -36 -36 -35 -35 -35 -35 -35 -35 -35 -35 -35 -34 -34 -34 -34 -34 -34 -34 -34 -34 -34 -34 -34 -34 -34 -34 -34 -34 -34 -34 -33 -33 -33 -34 -33 -33 -33 -33 -33 -33 -32 -32 -32 -32
-32 -32 -32 -32 -32 -32 -32 -32 -32 -32 -32 -32 -32 -32 -33 -33 -33 -33 -33 -34 -34 -34 -34 -34 -35 -35 -35 -35 -35 -35 -35 -35 -35 -35 -35 -35 -35 -35 -35 -34 -34 -34 -34 -34 -34 -34 -34 -34 -34 -34 -33 -33 -33 -33 -33 -33 -34 -34 -34 -34 -34 -33 -33 -33 -33 -33 -33 -33 -33 -33 -33 -33 -33 -33
-31 -31 -31 -31 -31 -32 -32 -32 -32 -32 -32 -32 -32 -32 -32 -32 -32 -33 -33 -33 -33 -34 -34 -34 -34 -34 -34 -34 -35 -35 -35 -35 -35 -35 -34 -34 -34 -34 -34 -34 -34 -34 -34 -34 -34 -34 -34 -34 -33 -33 -33 -33 -33 -33 -33 -33 -33 -33 -33 -33 -34 -34 -33 -33 -33 -33 -33 -33 -33 -33 -34 -34 -34 -34
-32 -31 -31 -31 -31 -31 -31 -31 -31 -31 -32 -32 -32 -32 -32 -32 -32 -32 -32 -32 -33 -33 -33 -33 -33 -34 -34 -34 -34 -34 -34 -34 -34 -34 -34 -34 -34 -34 -34 -34 -34 -34 -33 -33 -33 -34 -33 -33 -32 -32 -32 -32 -32 -32 -32 -32 -32 -32 -32 -33 -33 -33 -33 -33 -33 -33 -33 -33 -33 -33 -34 -34 -34 -34
-32 -31 -31 -31 -31 -31 -31 -31 -31 -31 -31 -31 -31 -31 -31 -31 -31 -31 -32 -32 -32 -32 -32 -32 -32 -32 -33 -33 -33 -33 -33 -33 -33 -33 -33 -33 -33 -33 -33 -33 -33 -33 -32 -32 -33 -33 -32 -32 -32 -32 -32 -32 -31 -31 -31 -32 -32 -32 -32 -32 -32 -33 -33 -33 -33 -33 -33 -33 -33 -34 -34 -34 -34 -34
-32 -31 -31 -31 -31 -31 -31 -31 -31 -31 -31 -31 -31 -31 -31 -31 -31 -31 -31 -31 -31 -31 -32 -32 -32 -32 -32 -32 -32 -32 -32 -32 -32 -32 -32 -32 -32 -32 -32 -32 -32 -32 -32 -32 -32 -32 -32 -32 -32 -31 -31 -31 -32 -32 -32 -32 -32 -32 -32 -32 -32 -33 -33 -33 -33 -33 -33 -33 -34 -34 -34 -34 -34 -34
Height
5305 5310 5315 5320 5326 5331 5336 5340 5346 5352 5357 5360 5364 5370 5376 5382 5387 5393 5398 5404 5414 5425 5432 5437 5443 5453 5462 5469 5477 5487 5494 5502 5510 5514 5516 5523 5532 5537 5543 5550 5556 5561 5566 5571 5576 5580 5583 5587 5593 5598 5602 5607 5611 5616 5621 5625 5629 5633 5638 5641 5644 5646 5648 5650 5653 5656 5661 5666 5670 5673 5676 5680 5685 5689
5289 5294 5300 5305 5310 5316 5319 5324 5331 5337 5342 5345 5350 5355 5361 5366 5371 5376 5381 5389 5400 5409 5415 5422 5429 5436 5446 5454 5462 5471 5480 5489 5497 5501 5505 5511 5519 5527 5532 5537 5543 5549 5554 5559 5564 5569 5573 5577 5583 5588 5593 5598 5602 5607 5611 5615 5620 5625 5629 5633 5636 5639 5641 5644 5647 5649 5654 5659 5663 5667 5670 5674 5678 5681
5276 5280 5286 5290 5296 5301 5304 5308 5316 5322 5326 5331 5336 5341 5346 5350 5355 5361 5366 5373 5385 5394 5399 5407 5415 5420 5428 5439 5448 5455 5465 5475 5482 5486 5492 5500 5507 5513 5518 5524 5530 5537 5543 5548 5553 5558 5561 5567 5573 5579 5584 5589 5593 5597 5602 5606 5611 5616 5621 5624 5628 5631 5634 5638 5641 5642 5646 5651 5655 5660 5664 5667 5670 5674
5266 5270 5274 5278 5283 5287 5290 5295 5302 5308 5312 5317 5321 5326 5331 5336 5341 5347 5351 5357 5370 5380 5383 5390 5399 5405 5412 5423 5431 5438 5448 5458 5465 5470 5478 5487 5493 5498 5504 5512 5519 5525 5531 5537 5543 5547 5551 5556 5562 5569 5575 5579 5583 5588 5592 5597 5601 5607 5612 5615 5619 5623 5627 5631 5634 5635 5639 5643 5647 5652 5656 5660 5664 5667
5260 5263 5266 5269 5273 5276 5280 5285 5291 5295 5299 5303 5308 5312 5317 5322 5327 5332 5337 5343 5354 5364 5367 5373 5382 5390 5397 5405 5412 5419 5428 5440 5448 5455 5464 5473 5479 5485 5493 5501 5507 5514 5520 5527 5533 5537 5540 5545 5551 5558 5564 5569 5574 5579 5584 5588 5593 5597 5602 5606 5610 5614 5619 5623 5627 5629 5632 5636 5639 5643 5648 5653 5657 5660
5256 5258 5261 5263 5266 5269 5272 5277 5280 5284 5288 5292 5296 5300 5304 5309 5315 5319 5324 5330 5338 5346 5353 5358 5366 5375 5381 5387 5394 5402 5411 5422 5432 5439 5449 5458 5465 5473 5481 5488 5495 5502 5509 5515 5521 5526 5529 5533 5540 5546 5552 5559 5565 5570 5574 5579 5584 5589 5593 5597 5602 5606 5611 5615 5619 5622 5625 5629 5632 5635 5639 5644 5649 5652
5254 5255 5257 5260 5261 5264 5267 5270 5273 5276 5279 5282 5285 5290 5294 5299 5304 5308 5312 5318 5323 5330 5339 5345 5351 5359 5365 5370 5379 5386 5392 5404 5415 5424 5434 5443 5450 5459 5467 5474 5483 5491 5498 5504 5509 5514 5518 5523 5528 5535 5541 5548 5554 5560 5565 5570 5575 5580 5584 5589 5593 5598 5602 5606 5610 5614 5617 5621 5624 5627 5631 5635 5640 5644
5252 5253 5255 5257 5258 5260 5263 5265 5268 5270 5272 5275 5278 5282 5286 5289 5293 5298 5302 5307 5312 5317 5325 5333 5337 5344 5350 5355 5363 5370 5376 5387 5399 5408 5417 5426 5434 5443 5453 5462 5471 5478 5485 5492 5497 5502 5507 5513 5519 5525 5531 5537 5544 5550 5556 5561 5566 5571 5576 5580 5585 5589 5593 5597 5601 5605 5608 5612 5615 5619 5623 5627 5631 5635
5250 5252 5253 5255 5256 5258 5260 5262 5264 5266 5267 5270 5272 5275 5278 5281 5285 5290 5293 5297 5302 5306 5313 5320 5325 5331 5337 5342 5349 5357 5363 5371 5381 5390 5400 5410 5419 5428 5439 5449 5458 5466 5473 5479 5484 5490 5497 5503 5510 5516 5521 5527 5534 5540 5545 5550 5556 5562 5567 5571 5576 5580 5585 5589 5592 5595 5599 5603 5607 5611 5614 5618 5622 5626
5249 5250 5252 5253 5254 5255 5258 5259 5261 5262 5263 5265 5267 5269 5272 5275 5278 5282 5286 5290 5295 5298 5303 5309 5315 5320 5326 5331 5337 5344 5350 5355 5365 5375 5385 5395 5405 5414 5425 5435 5445 5453 5459 5465 5472 5479 5486 5493 5499 5506 5512 5517 5523 5530 5535 5540 5546 5552 5557 5562 5567 5571 5576 5580 5583 5587 5590 5594 5598 5602 5606 5609 5613 5616
5248 5249 5250 5251 5252 5253 5255 5257 5258 5260 5261 5262 5264 5266 5268 5271 5273 5277 5280 5284 5288 5292 5295 5300 5306 5312 5317 5322 5327 5333 5338 5344 5352 5363 5372 5381 5392 5402 5412 5421 5431 5440 5446 5453 5460 5467 5474 5481 5488 5495 5501 5506 5513 5520 5527 5531 5536 5542 5547 5552 5557 5562 5566 5571 5574 5578 5581 5585 5589 5593 5597 5600 5603 5608
5247 5248 5249 5250 5251 5252 5253 5255 5256 5257 5259 5260 5261 5263 5265 5267 5270 5273 5276 5280 5283 5287 5290 5294 5299 5305 5309 5313 5317 5323 5329 5335 5342 5352 5361 5370 5379 5389 5398 5407 5416 5425 5433 5440 5447 5455 5462 5469 5476 5483 5489 5495 5503 5510 5516 5521 5527 5532 5538 5543 5548 5552 5557 5561 5565 5569 5572 5576 5579 5583 5588 5591 5594 5598
5247 5247 5248 5249 5250 5251 5252 5253 5254 5255 5256 5258 5259 5261 5263 5265 5267 5270 5273 5276 5279 5282 5285 5289 5293 5298 5301 5305 5309 5314 5321 5328 5334 5341 5350 5358 5367 5376 5385 5394 5403 5412 5421 5429 5436 5444 5451 5458 5465 5472 5479 5485 5493 5500 5505 5511 5518 5524 5529 5535 5539 5542 5546 5551 5555 5559 5563 5567 5570 5574 5578 5582 5585 5589
5246 5247 5247 5248 5249 5250 5251 5252 5253 5254 5255 5256 5257 5259 5261 5262 5265 5267 5269 5273 5276 5278 5281 5284 5288 5292 5295 5299 5304 5308 5315 5321 5326 5331 5340 5349 5357 5365 5374 5383 5393 5402 5410 5418 5426 5433 5440 5447 5454 5462 5470 5476 5483 5490 5496 5502 5508 5514 5520 5524 5529 5533 5536 5541 5544 5549 5553 5557 5561 5565 5569 5572 5575 5579
5246 5246 5247 5247 5248 5249 5250 5251 5252 5252 5253 5254 5256 5257 5259 5260 5263 5264 5266 5269 5272 5275 5278 5280 5283 5287 5291 5295 5299 5303 5309 5314 5319 5324 5331 5339 5347 5355 5364 5373 5383 5392 5400 5407 5415 5422 5428 5436 5443 5451 5460 5467 5473 5480 5487 5492 5498 5503 5508 5513 5518 5523 5527 5531 5535 5538 5542 5546 5551 5555 5559 5563 5566 5570
5245 5246 5246 5247 5247 5248 5249 5250 5251 5252 5252 5253 5254 5256 5257 5258 5260 5262 5264 5266 5268 5271 5273 5276 5279 5283 5287 5291 5295 5299 5304 5310 5314 5319 5324 5330 5338 5345 5353 5362 5371 5379 5387 5395 5402 5409 5417 5424 5432 5439 5448 5456 5462 5469 5475 5481 5486 5491 5496 5502 5508 5512 5517 5521 5525 5529 5533 5536 5541 5545 5549 5553 5557 5561
5246 5246 5246 5247 5247 5247 5248 5249 5249 5251 5251 5252 5253 5254 5255 5257 5258 5260 5262 5264 5266 5268 5270 5273 5277 5280 5283 5287 5291 5296 5301 5306 5310 5314 5318 5323 5330 5336 5343 5351 5358 5366 5375 5383 5390 5398 5405 5413 5420 5427 5435 5443 5450 5457 5462 5468 5474 5479 5484 5490 5496 5501 5506 5510 5514 5519 5523 5527 5531 5536 5540 5544 5548 5551
5246 5246 5246 5247 5247 5247 5248 5248 5249 5250 5250 5251 5252 5253 5254 5256 5257 5259 5260 5262 5264 5267 5269 5272 5275 5278 5281 5285 5289 5292 5297 5302 5305 5309 5313 5317 5322 5328 5334 5341 5347 5354 5363 5371 5378 5386 5394 5401 5408 5415 5423 5431 5437 5443 5449 5455 5461 5467 5473 5478 5483 5488 5493 5498 5503 5508 5512 5516 5521 5526 5530 5534 5537 5541
5247 5247 5247 5247 5247 5247 5248 5248 5248 5249 5249 5250 5251 5252 5253 5254 5256 5257 5258 5260 5262 5264 5267 5269 5272 5275 5278 5282 5285 5288 5293 5297 5301 5305 5309 5312 5317 5321 5327 5332 5339 5345 5352 5359 5367 5374 5381 5388 5396 5403 5411 5418 5425 5431 5437 5442 5448 5455 5462 5467 5472 5476 5481 5486 5491 5496 5501 5505 5510 5515 5520 5523 5527 5530
5247 5247 5247 5247 5247 5248 5248 5248 5248 5248 5249 5249 5250 5251 5252 5253 5254 5255 5257 5258 5260 5262 5264 5267 5269 5271 5274 5277 5280 5284 5288 5292 5296 5300 5304 5308 5312 5317 5321 5326 5333 5338 5343 5349 5357 5364 5371 5378 5385 5392 5400 5408 5414 5420 5426 5432 5437 5443 5450 5456 5461 5465 5470 5475 5480 5485 5489 5494 5500 5505 5509 5513 5517 5521
5248 5248 5248 5248 5248 5248 5248 5248 5248 5248 5249 5249 5250 5250 5251 5252 5252 5254 5255 5256 5258 5260 5262 5264 5266 5268 5270 5273 5276 5279 5283 5287 5291 5296 5300 5304 5308 5312 5316 5322 5327 5333 5338 5342 5348 5355 5362 5369 5376 5384 5391 5398 5405 5411 5417 5422 5428 5434 5440 5446 5451 5456 5460 5464 5469 5474 5478 5483 5489 5494 5498 5502 5506 5510
5250 5249 5249 5249 5249 5248 5248 5248 5248 5248 5248 5248 5249 5249 5250 5251 5251 5252 5253 5254 5255 5257 5259 5260 5263 5264 5267 5269 5272 5275 5279 5282 5287 5292 5296 5299 5303 5308 5313 5318 5322 5328 5333 5337 5342 5348 5355 5361 5367 5374 5382 5389 5396 5402 5408 5413 5418 5424 5430 5436 5441 5446 5450 5454 5458 5463 5467 5473 5478 5483 5488 5492 5495 5498
5251 5251 5250 5250 5250 5249 5249 5249 5248 5248 5248 5248 5248 5248 5249 5249 5250 5251 5252 5252 5253 5254 5256 5258 5259 5261 5264 5266 5268 5271 5275 5278 5283 5287 5290 5294 5299 5303 5308 5313 5318 5324 5329 5333 5336 5341 5347 5352 5357 5364 5373 5381 5386 5392 5398 5404 5409 5414 5419 5424 5430 5435 5440 5444 5448 5453 5458 5463 5468 5473 5477 5481 5484 5488
5251 5251 5251 5250 5250 5249 5249 5248 5248 5248 5248 5247 5247 5248 5248 5248 5248 5248 5249 5250 5251 5252 5254 5255 5256 5258 5260 5262 5264 5267 5270 5274 5279 5282 5285 5290 5294 5299 5303 5309 5314 5320 5325 5328 5330 5334 5338 5343 5349 5355 5363 5369 5373 5380 5388 5394 5399 5404 5409 5414 5420 5425 5430 5435 5439 5444 5449 5454 5458 5462 5466 5470 5473 5477
5251 5251 5250 5250 5249 5249 5248 5248 5247 5247 5247 5247 5246 5246 5246 5246 5246 5246 5247 5248 5249 5250 5251 5253 5254 5256 5257 5259 5261 5263 5266 5270 5274 5277 5281 5285 5289 5294 5299 5304 5308 5314 5319 5322 5325 5328 5331 5337 5343 5348 5353 5357 5362 5370 5378 5383 5388 5394 5399 5405 5410 5415 5421 5426 5431 5435 5439 5444 5448 5452 5456 5460 5463 5467
5252 5251 5250 5249 5248 5248 5247 5247 5246 5246 5246 5245 5245 5245 5245 5244 5244 5245 5245 5246 5246 5248 5249 5250 5252 5254 5255 5257 5259 5261 5264 5266 5270 5273 5276 5280 5285 5290 5294 5298 5302 5306 5312 5317 5319 5321 5325 5333 5339 5342 5345 5349 5355 5362 5369 5374 5379 5384 5390 5396 5402 5407 5412 5417 5422 5426 5430 5434 5438 5442 5446 5449 5452 5456
5251 5250 5249 5249 5248 5247 5246 5245 5245 5244 5244 5243 5243 5243 5242 5242 5242 5242 5243 5243 5244 5245 5247 5248 5250 5252 5253 5255 5257 5259 5262 5264 5267 5270 5273 5276 5280 5284 5288 5292 5296 5299 5305 5310 5313 5314 5320 5329 5335 5337 5339 5342 5349 5356 5361 5365 5371 5376 5382 5387 5393 5398 5403 5408 5412 5417 5420 5424 5428 5432 5435 5438 5440 5445
5250 5249 5248 5247 5246 5245 5245 5244 5243 5242 5242 5241 5240 5240 5239 5238 5238 5238 5239 5240 5241 5242 5244 5246 5247 5249 5251 5253 5255 5257 5259 5262 5264 5267 5270 5273 5276 5279 5282 5286 5290 5294 5299 5303 5305 5308 5314 5323 5328 5330 5333 5337 5343 5349 5353 5358 5365 5370 5374 5379 5384 5389 5394 5398 5402 5407 5411 5414 5418 5420 5423 5426 5429 5433
5249 5248 5247 5246 5245 5244 5243 5242 5241 5240 5239 5238 5237 5236 5234 5233 5232 5233 5233 5235 5236 5239 5241 5243 5245 5246 5248 5250 5252 5254 5257 5259 5262 5265 5267 5270 5273 5276 5279 5282 5285 5289 5293 5296 5299 5303 5309 5316 5321 5323 5327 5331 5337 5342 5346 5352 5358 5363 5366 5370 5376 5380 5384 5388 5393 5396 5400 5404 5406 5409 5412 5415 5418 5421
5248 5247 5246 5245 5244 5243 5242 5241 5239 5238 5237 5235 5233 5230 5228 5226 5225 5226 5227 5229 5231 5234 5237 5239 5242 5244 5246 5248 5250 5252 5255 5257 5259 5262 5265 5268 5271 5273 5276 5278 5281 5284 5287 5290 5294 5298 5303 5309 5313 5316 5320 5325 5329 5334 5339 5344 5349 5353 5356 5360 5365 5369 5373 5378 5382 5386 5389 5393 5395 5398 5402 5404 5406 5408
5248 5247 5246 5244 5243 5242 5241 5239 5238 5236 5235 5233 5230 5226 5222 5220 5220 5220 5221 5223 5226 5229 5232 5235 5238 5241 5244 5246 5248 5251 5253 5255 5258 5260 5263 5265 5268 5271 5273 5276 5278 5281 5284 5287 5290 5294 5299 5303 5307 5310 5314 5319 5323 5327 5332 5336 5340 5343 5346 5350 5355 5359 5363 5368 5372 5375 5379 5382 5384 5388 5391 5393 5395 5397
5248 5246 5245 5244 5243 5241 5240 5238 5237 5235 5233 5231 5227 5223 5219 5217 5217 5216 5217 5219 5221 5224 5228 5231 5235 5239 5242 5244 5247 5249 5252 5254 5256 5259 5261 5264 5266 5269 5271 5274 5277 5279 5282 5285 5288 5291 5295 5298 5301 5304 5308 5312 5316 5320 5324 5328 5331 5335 5338 5342 5346 5350 5354 5358 5361 5365 5368 5370 5374 5378 5381 5383 5384 5387
5247 5246 5245 5243 5242 5241 5239 5238 5236 5234 5232 5230 5226 5221 5218 5216 5215 5214 5215 5216 5218 5221 5225 5228 5232 5236 5239 5242 5245 5247 5250 5253 5255 5257 5260 5262 5265 5267 5269 5272 5275 5277 5280 5282 5285 5288 5291 5294 5297 5300 5303 5307 5310 5313 5317 5321 5324 5328 5332 5335 5337 5341 5346 5349 5351 5354 5357 5360 5363 5367 5370 5372 5374 5376
5247 5246 5245 5243 5242 5241 5239 5238 5236 5234 5232 5229 5226 5222 5218 5215 5214 5214 5214 5215 5217 5220 5223 5227 5230 5234 5237 5240 5243 5246 5249 5252 5254 5256 5259 5261 5264 5266 5268 5271 5273 5275 5278 5280 5283 5286 5289 5291 5294 5297 5300 5303 5305 5308 5312 5315 5318 5321 5325 5327 5328 5331 5336 5339 5341 5343 5345 5348 5352 5355 5359 5362 5364 5365
5248 5246 5245 5244 5242 5241 5239 5238 5236 5234 5232 5230 5227 5224 5220 5217 5215 5215 5215 5216 5218 5220 5223 5226 5229 5231 5235 5238 5241 5244 5248 5250 5252 5255 5258 5260 5263 5265 5267 5269 5272 5274 5276 5279 5281 5283 5286 5289 5291 5294 5296 5299 5302 5304 5307 5310 5312 5314 5317 5319 5321 5322 5326 5329 5331 5332 5335 5338 5341 5345 5348 5351 5353 5354
5248 5247 5246 5244 5243 5241 5240 5238 5237 5235 5233 5231 5229 5227 5224 5221 5218 5217 5217 5218 5219 5221 5223 5225 5228 5231 5234 5237 5239 5243 5245 5248 5251 5254 5256 5259 5261 5264 5266 5268 5270 5272 5275 5277 5279 5281 5284 5286 5288 5291 5293 5295 5298 5301 5303 5304 5306 5308 5310 5312 5313 5314 5317 5320 5321 5323 5326 5328 5331 5334 5337 5339 5341 5342
5248 5247 5246 5245 5243 5242 5240 5239 5237 5236 5234 5232 5230 5229 5227 5224 5222 5221 5220 5220 5221 5222 5224 5226 5228 5230 5233 5235 5238 5241 5243 5246 5249 5252 5254 5257 5260 5262 5264 5266 5268 5270 5272 5275 5277 5279 5281 5283 5285 5288 5290 5292 5294 5297 5298 5299 5301 5303 5304 5306 5307 5308 5310 5312 5314 5316 5317 5319 5321 5323 5325 5326 5328 5329
5248 5247 5246 5245 5244 5242 5241 5240 5238 5237 5235 5234 5232 5231 5229 5228 5226 5225 5224 5223 5223 5224 5225 5226 5228 5230 5232 5234 5237 5239 5241 5244 5247 5250 5252 5255 5257 5260 5262 5264 5266 5268 5270 5272 5274 5276 5278 5280 5282 5284 5286 5288 5290 5292 5293 5294 5296 5297 5298 5300 5301 5302 5303 5305 5306 5307 5308 5309 5310 5312 5313 5314 5316 5317
5248 5247 5246 5245 5244 5243 5242 5240 5239 5238 5237 5236 5234 5233 5232 5230 5229 5228 5227 5227 5227 5227 5227 5228 5229 5230 5232 5234 5236 5238 5240 5243 5245 5248 5250 5253 5255 5258 5260 5262 5263 5265 5267 5269 5271 5273 5275 5277 5279 5280 5281 5283 5285 5287 5288 5289 5291 5291 5292 5293 5295 5296 5296 5297 5297 5298 5299 5300 5301 5301 5302 5303 5305 5305
5247 5246 5246 5245 5244 5243 5242 5241 5240 5239 5238 5237 5236 5235 5234 5233 5232 5231 5230 5230 5230 5230 5230 5230 5231 5232 5233 5234 5236 5238 5240 5242 5244 5246 5248 5250 5253 5255 5257 5259 5261 5262 5264 5266 5268 5270 5272 5273 5274 5275 5276 5278 5280 5282 5283 5284 5286 5288 5288 5287 5288 5288 5289 5289 5289 5289 5290 5290 5290 5290 5291 5292 5293 5294
5246 5245 5245 5244 5244 5243 5242 5242 5241 5240 5239 5238 5237 5236 5236 5235 5234 5233 5233 5233 5232 5232 5233 5233 5234 5234 5235 5236 5237 5239 5240 5242 5243 5245 5247 5249 5251 5253 5255 5257 5258 5260 5262 5264 5265 5267 5268 5269 5270 5271 5273 5274 5276 5277 5278 5280 5282 5283 5283 5282 5281 5281 5281 5281 5282 5282 5282 5282 5281 5282 5283 5283 5283 5283
5245 5245 5244 5244 5243 5243 5242 5242 5241 5240 5240 5239 5238 5238 5237 5236 5236 5235 5235 5235 5235 5235 5235 5235 5236 5236 5237 5238 5239 5240 5241 5243 5244 5246 5247 5249 5251 5252 5254 5255 5257 5258 5260 5261 5263 5264 5265 5266 5267 5268 5269 5271 5272 5272 5274 5275 5276 5276 5276 5277 5276 5275 5274 5274 5275 5275 5275 5275 5275 5275 5275 5274 5274 5274
5244 5244 5243 5243 5243 5243 5242 5242 5241 5241 5240 5240 5239 5239 5238 5238 5237 5237 5237 5236 5236 5236 5237 5237 5237 5238 5238 5239 5240 5241 5242 5243 5245 5246 5247 5249 5250 5251 5253 5254 5255 5257 5258 5259 5261 5262 5262 5262 5263 5264 5266 5267 5267 5268 5269 5270 5270 5270 5270 5271 5271 5270 5269 5268 5268 5268 5267 5267 5267 5267 5267 5265 5264 5265
5243 5243 5243 5242 5242 5242 5242 5241 5241 5241 5240 5240 5240 5239 5239 5239 5238 5238 5238 5238 5238 5238 5238 5238 5238 5239 5239 5240 5241 5242 5243 5244 5245 5246 5247 5248 5249 5250 5251 5253 5254 5255 5256 5257 5258 5259 5260 5260 5261 5262 5262 5263 5263 5264 5264 5264 5264 5265 5264 5264 5265 5265 5263 5261 5261 5260 5260 5260 5260 5259 5258 5256 5255 5255
5242 5242 5242 5242 5242 5241 5241 5241 5241 5240 5240 5240 5240 5239 5239 5239 5239 5239 5239 5238 5238 5238 5239 5239 5239 5240 5240 5241 5241 5242 5243 5243 5244 5245 5246 5247 5248 5249 5250 5252 5253 5253 5254 5255 5256 5257 5257 5258 5258 5259 5259 5259 5259 5259 5259 5259 5259 5259 5258 5258 5258 5258 5256 5254 5253 5252 5252 5252 5251 5249 5247 5246 5245 5245
Wind_Speed
103 105 108 110 112 115 118 120 122 123 123 124 125 126 126 127 127 127 127 127 125 123 121 120 119 117 115 114 112 108 105 104 101 99 101 101 99 97 96 94 93 93 92 91 90 89 88 87 86 85 83 81 80 78 77 76 75 73 71 68 66 65 64 63 62 63 65 66 67 68 69 70 71 71
91 94 97 99 101 104 107 111 113 116 118 121 123 125 126 128 128 128 129 129 128 126 125 124 122 121 119 117 115 112 109 106 104 101 101 102 101 99 98 97 95 94 93 93 92 91 91 90 88 87 85 83 82 81 79 78 77 76 74 73 73 73 72 70 70 70 68 65 64 63 63 64 66 68
74 79 84 87 90 92 95 98 100 103 107 111 115 118 122 125 126 128 130 130 129 129 127 126 125 125 123 121 118 116 113 110 108 105 103 102 103 102 101 100 98 96 95 94 93 93 93 92 90 89 87 85 84 82 81 80 79 78 76 76 76 77 77 75 74 75 74 71 69 67 64 63 62 63
55 61 68 74 79 83 86 89 90 91 94 97 101 105 110 115 119 123 127 129 130 130 130 129 128 127 126 124 122 121 118 115 112 111 108 105 104 105 104 102 100 98 97 95 94 94 94 93 92 91 89 87 86 85 83 82 81 80 78 78 78 78 77 76 76 77 77 75 73 71 69 67 65 64
41 46 52 58 64 70 75 79 81 84 86 88 91 94 98 103 108 112 117 121 125 127 129 130 130 130 129 127 126 125 123 120 117 115 113 109 107 107 106 104 103 101 99 97 95 94 94 94 94 93 91 90 88 86 85 84 83 82 80 79 79 78 78 77 77 77 77 76 75 73 71 70 69 68
28 33 38 42 48 53 58 63 68 72 76 79 83 86 90 93 96 100 103 108 112 117 120 122 125 128 128 128 129 128 126 124 121 119 117 114 110 109 107 106 105 103 101 99 97 96 95 95 94 94 93 92 90 88 87 86 84 83 82 81 80 79 79 78 78 77 77 76 76 75 74 72 71 70
21 23 27 30 35 40 44 48 52 56 61 66 71 75 79 82 85 89 91 95 99 105 108 110 113 117 120 121 124 127 127 125 122 120 118 117 114 112 109 108 106 105 103 101 99 98 96 95 94 94 94 93 92 91 89 87 85 84 83 82 81 81 80 79 79 78 78 77 77 76 75 74 73 71
20 20 21 23 25 28 31 35 38 42 47 52 57 62 65 69 73 77 80 83 87 93 97 99 101 104 107 110 114 118 121 121 119 117 117 117 117 115 112 109 107 106 105 103 101 100 98 95 94 94 93 93 92 92 91 89 86 85 84 83 82 82 81 80 80 79 79 78 78 77 77 76 75 73
19 19 20 21 22 22 23 24 27 31 36 40 45 50 53 57 61 64 67 71 76 81 86 89 91 93 96 98 101 105 109 113 113 112 111 113 116 116 115 112 109 108 107 105 104 102 100 97 95 94 93 92 91 90 90 90 89 86 85 84 83 82 82 81 81 81 80 79 79 78 78 77 76 76
18 19 19 21 22 21 21 21 23 26 28 31 35 39 43 47 50 53 56 60 64 69 75 80 81 83 86 89 92 95 99 103 105 105 106 108 112 115 115 114 111 109 108 107 106 104 102 99 97 96 94 92 91 88 86 86 88 88 86 84 83 82 82 82 82 82 82 81 80 79 79 78 78 77
16 17 18 20 21 21 21 22 23 24 24 25 27 30 34 37 41 44 47 51 54 57 62 68 70 72 76 79 83 88 91 95 98 99 101 104 108 111 113 113 112 110 109 109 107 106 104 101 99 97 96 94 92 88 86 84 85 86 86 85 84 82 82 82 83 83 82 82 82 81 80 79 79 78
14 15 16 18 19 19 20 22 23 24 23 24 24 25 27 30 33 36 39 42 45 46 49 55 58 60 63 66 71 78 83 87 92 94 95 100 105 109 110 111 111 110 109 109 108 107 106 103 100 98 97 97 94 90 90 89 87 85 84 84 84 83 83 82 82 83 83 83 83 82 81 80 80 79
12 13 13 15 17 18 19 21 22 23 23 23 23 23 24 26 28 30 32 35 37 38 40 44 47 49 53 56 61 69 74 78 84 88 90 94 100 106 109 110 109 109 109 109 108 107 106 105 103 99 96 97 96 93 93 94 91 87 84 82 81 81 82 83 83 83 83 83 82 82 82 82 82 81
11 11 12 14 15 16 18 19 20 21 22 22 22 23 24 25 26 29 31 32 32 33 34 37 39 41 45 47 51 58 64 68 75 81 85 88 94 101 106 108 108 108 108 108 108 107 106 105 104 101 97 95 94 94 94 94 94 91 88 84 81 78 79 80 82 83 84 83 82 82 82 82 82 82
9 10 12 13 14 15 16 17 18 19 20 21 22 23 24 25 26 29 32 33 33 33 34 37 40 40 42 44 45 48 54 59 65 72 77 81 86 92 99 105 107 107 107 107 107 107 107 105 104 102 100 97 95 94 93 92 92 93 93 90 84 80 79 79 79 82 84 84 84 82 82 82 82 83
8 8 10 11 12 13 14 15 16 17 18 20 21 23 24 25 27 30 32 35 38 39 40 42 44 44 44 46 47 47 48 50 54 59 65 71 77 82 89 97 104 106 106 106 106 106 106 106 104 103 102 101 98 95 93 92 91 92 94 94 91 87 84 81 79 80 82 84 85 85 83 82 82 82
6 6 7 8 9 10 11 13 14 16 17 18 20 22 23 24 27 28 30 34 37 40 42 44 45 46 47 47 47 46 45 45 46 49 53 59 66 72 78 85 94 102 106 106 106 106 105 105 105 104 103 104 103 99 95 93 93 92 92 93 94 94 91 88 85 84 83 83 84 85 86 85 84 82
5 5 5 5 6 7 8 10 12 14 15 17 18 20 21 22 25 27 28 30 33 36 39 41 43 45 47 46 45 44 44 45 46 47 48 51 56 62 68 74 82 92 101 106 107 106 105 105 105 105 104 104 107 107 103 98 96 95 93 92 92 93 93 93 91 89 87 85 84 82 83 84 84 84
5 4 4 5 5 6 7 8 9 11 12 14 16 17 19 20 22 24 26 28 30 31 33 36 39 42 43 44 45 46 46 47 48 50 50 51 52 56 61 66 71 78 89 99 105 107 107 106 105 105 105 104 106 109 110 108 104 101 99 97 95 93 92 93 92 90 88 87 85 83 80 79 80 81
3 4 4 5 5 6 7 7 8 9 9 10 12 14 16 18 20 22 23 25 27 29 30 33 36 39 41 43 46 48 51 51 50 51 53 53 53 55 59 63 66 69 76 87 98 104 107 107 106 105 105 105 104 106 109 111 111 108 106 104 103 100 97 95 94 93 90 88 87 85 83 81 80 80
1 1 2 2 3 4 5 6 7 8 9 9 10 11 13 15 17 19 21 23 25 26 28 30 33 37 41 43 46 49 54 56 53 52 53 55 55 56 58 61 64 66 67 73 84 95 102 106 107 105 104 104 104 104 104 106 109 110 110 109 108 106 102 100 99 99 97 95 92 89 87 85 84 83
4 3 2 1 1 1 2 3 4 5 6 8 9 11 12 13 14 16 18 21 23 24 26 28 30 33 37 41 44 47 53 58 58 54 54 56 57 58 58 59 62 65 65 65 71 81 90 98 103 105 105 103 102 101 100 100 102 104 107 108 108 108 107 105 103 103 104 102 99 96 92 89 86 85
3 2 2 2 2 2 3 4 4 5 6 7 8 9 11 12 13 16 17 19 21 22 23 25 28 30 33 36 40 43 48 56 60 59 58 58 59 60 60 60 61 63 64 64 66 71 78 85 92 99 103 102 101 100 98 96 95 97 100 102 104 105 105 105 104 104 104 103 101 99 97 94 89 86
5 5 5 5 5 5 6 6 7 8 8 9 9 10 10 11 13 16 18 19 20 21 22 24 26 28 31 33 36 38 41 48 56 62 63 61 60 60 59 59 59 61 63 66 66 68 72 76 81 89 96 99 101 100 98 97 95 94 94 96 97 98 99 99 99 99 99 99 99 97 97 96 93 90
8 8 8 8 8 9 9 9 10 10 11 11 12 13 13 14 15 17 17 19 20 21 22 23 24 26 28 30 32 33 35 39 46 56 63 64 63 62 60 58 58 59 61 66 68 68 70 72 75 79 85 93 98 99 98 97 97 96 94 94 94 94 94 94 93 91 91 92 94 94 94 93 94 93
10 10 10 10 11 12 12 12 13 13 13 14 14 15 16 17 19 19 19 20 20 21 22 23 24 24 25 27 28 29 29 31 35 42 50 57 60 61 62 62 61 59 60 63 69 72 71 69 70 73 78 83 89 93 95 95 96 97 97 96 95 94 94 93 92 89 87 87 88 91 92 92 93 94
10 10 10 11 11 12 13 14 15 15 15 15 15 16 18 20 21 22 22 22 22 22 22 22 23 23 24 25 26 26 27 27 28 31 37 42 47 52 56 60 62 62 60 61 66 72 73 71 69 70 73 77 81 85 88 91 92 94 95 95 95 96 96 97 96 93 91 89 87 88 91 93 94 94
11 11 10 10 11 11 12 13 15 15 16 16 17 18 20 23 25 25 26 26 26 25 24 23 23 23 24 24 25 26 26 27 27 28 30 32 35 39 44 50 54 57 58 60 63 67 70 71 71 71 71 72 75 78 81 85 86 88 90 92 93 94 95 96 98 97 95 93 91 90 90 92 94 95
11 11 10 10 11 11 12 13 14 15 16 17 19 22 24 26 27 28 29 29 29 28 27 26 24 23 23 24 25 25 25 26 26 26 27 28 28 30 34 38 43 47 51 56 59 60 61 65 70 73 74 74 74 75 77 79 80 82 84 87 89 92 93 94 96 97 97 94 93 91 91 91 92 94
10 10 10 10 10 11 12 13 14 16 17 18 21 23 23 24 25 27 29 30 31 31 30 28 27 26 24 24 24 24 24 25 25 24 24 25 26 27 28 31 34 37 42 47 51 53 54 55 60 66 70 73 75 76 76 77 78 79 81 83 85 88 90 92 94 96 98 98 97 94 92 91 92 93
10 10 10 10 11 12 13 14 15 17 17 19 21 21 17 16 18 20 24 27 29 31 31 30 29 28 26 25 23 22 22 22 22 22 23 23 24 25 27 27 28 29 32 36 40 43 46 48 51 55 59 62 66 69 70 72 73 75 78 80 82 83 85 87 90 92 95 99 101 100 98 96 94 94
10 11 11 11 12 12 13 14 15 16 16 18 21 18 11 9 11 14 18 21 25 29 31 31 30 28 27 26 25 23 22 20 20 20 20 21 22 23 24 25 25 26 27 28 31 33 35 39 42 46 49 52 55 58 61 63 66 69 71 74 77 79 81 82 85 87 90 93 96 99 101 101 100 98
11 11 12 12 13 13 13 14 15 15 15 17 20 17 10 6 6 9 13 16 19 24 28 30 30 29 28 27 27 26 24 21 20 20 19 19 20 20 21 21 23 24 26 27 28 29 30 32 35 37 40 43 46 49 52 55 59 62 64 66 69 73 75 77 80 82 85 87 89 92 95 98 99 101
11 12 12 12 13 13 13 14 14 14 14 16 19 19 13 8 3 3 9 12 14 18 23 27 28 28 28 28 27 27 25 24 23 22 20 20 19 19 19 19 20 21 23 25 26 27 28 30 32 33 34 36 38 41 44 47 50 53 57 59 62 66 69 71 74 78 80 83 85 87 89 91 93 96
12 12 12 12 12 13 13 13 14 14 13 14 16 18 17 13 8 3 6 10 13 15 19 23 25 27 28 28 28 27 26 26 26 25 23 23 21 20 20 20 20 21 21 22 23 25 26 27 28 30 31 33 34 35 37 39 42 45 48 51 55 59 62 66 69 73 76 79 82 85 86 88 90 91
12 12 12 12 12 12 12 12 13 14 14 13 14 16 17 16 14 9 6 7 11 14 17 20 22 24 25 26 27 27 27 27 27 26 25 25 24 23 23 22 22 22 23 23 23 24 25 26 27 28 29 30 31 32 34 36 38 40 42 45 48 52 55 58 62 66 70 73 77 80 83 86 88 90
12 12 12 11 11 11 11 12 12 13 14 14 13 13 15 16 16 15 12 8 8 10 13 16 18 20 22 24 25 26 27 27 27 26 26 26 25 25 24 25 25 25 25 25 26 26 26 27 28 28 29 30 31 32 34 36 38 40 42 44 46 49 51 54 56 59 62 65 68 72 75 79 82 85
11 11 11 10 10 9 10 10 11 12 12 13 13 13 13 14 15 15 15 13 11 9 9 10 13 15 18 20 21 23 24 25 26 26 26 26 26 26 26 26 27 27 27 27 28 28 28 28 29 29 30 32 32 33 35 37 39 41 43 45 47 49 51 53 55 57 59 61 63 66 68 71 74 76
11 10 9 9 8 8 8 8 9 10 10 11 11 12 12 12 13 13 13 13 13 12 11 10 9 10 12 14 16 19 20 22 23 24 25 26 27 27 27 27 27 28 28 28 28 29 29 29 29 31 32 33 33 34 35 37 38 40 42 44 45 47 49 52 54 57 59 61 63 65 68 69 71 73
10 9 8 7 7 7 7 7 7 8 8 9 9 10 10 11 11 11 11 11 11 11 11 10 10 9 9 10 11 13 15 17 19 20 22 23 24 25 26 26 27 28 28 27 27 28 28 28 29 30 30 30 30 31 32 33 34 35 37 39 41 42 44 46 49 52 54 56 59 62 64 67 69 71
9 8 7 7 6 6 5 5 5 6 6 7 8 8 8 9 9 9 9 9 9 9 9 9 9 9 9 9 9 10 11 12 13 14 16 17 18 19 21 22 23 23 24 24 25 25 25 26 26 27 27 27 27 28 29 31 31 33 35 38 40 41 42 44 45 47 48 50 52 54 56 58 60 61
8 7 7 6 6 5 4 3 3 4 4 5 5 6 6 7 7 7 8 8 8 8 7 7 7 7 7 8 8 9 9 10 11 12 13 14 15 16 17 18 19 20 21 21 22 22 23 24 24 24 24 25 26 27 28 30 32 34 36 39 41 43 45 46 47 48 49 51 52 53 54 55 56 57
7 7 6 6 5 4 3 2 2 2 2 3 3 4 4 5 5 6 6 6 6 6 6 6 6 6 6 6 7 7 8 9 9 10 11 12 13 14 15 16 17 18 19 19 20 21 22 22 22 22 22 24 25 26 27 29 32 34 36 38 40 43 46 48 49 50 51 53 54 55 56 58 59 60
7 6 6 6 5 4 3 2 1 1 1 1 1 2 2 3 3 3 4 4 4 5 5 4 4 4 4 4 5 5 6 6 7 8 9 10 11 12 13 14 15 16 16 16 18 20 21 20 21 22 23 24 26 27 29 31 33 35 37 39 40 42 46 48 49 51 52 53 53 55 56 58 60 61
6 6 6 6 5 4 3 3 2 2 2 1 0 0 1 1 2 2 2 3 3 3 3 3 3 3 2 2 2 3 3 4 4 5 6 7 8 9 10 11 12 13 14 15 16 18 19 20 22 24 25 27 29 31 33 35 36 38 40 42 42 44 46 49 50 52 52 52 53 54 56 57 58 59
Wind_Direction
248 248 248 248 248 248 248 248 248 248 248 248 248 248 248 247 247 246 246 246 246 246 245 245 244 243 242 242 242 240 240 240 240 240 241 241 240 239 238 238 237 237 238 238 237 237 238 238 237 237 236 235 235 235 235 234 234 234 233 232 232 232 235 238 240 241 240 240 241 243 244 245 245 246
247 247 247 247 247 247 247 247 247 247 247 248 248 248 248 248 248 248 247 247 246 246 246 246 246 245 244 243 242 241 240 239 239 239 239 240 240 238 238 238 237 236 237 237 237 237 237 237 237 237 236 235 235 235 235 235 235 235 235 234 231 232 236 240 242 242 242 242 242 242 244 245 245 246
247 246 245 245 245 245 246 246 246 245 246 246 246 247 247 247 248 248 248 248 247 247 247 247 246 246 246 244 243 242 241 239 239 238 238 238 239 238 237 237 236 236 235 236 236 237 237 237 237 237 236 235 235 235 235 235 235 235 235 235 235 235 238 240 242 244 244 244 243 242 243 244 245 245
243 243 243 243 243 243 244 244 244 244 244 244 244 245 245 246 246 247 247 247 247 247 247 247 247 247 246 246 245 244 242 240 239 239 238 237 237 237 237 236 236 235 235 235 235 236 237 237 237 236 236 236 235 235 235 235 235 235 235 236 237 238 239 240 241 243 245 245 245 244 244 243 244 245
242 241 241 241 241 241 242 242 243 243 243 243 243 243 243 243 244 245 245 246 246 246 246 247 246 246 246 246 246 245 243 241 240 239 239 237 236 236 236 235 235 235 235 234 234 235 236 237 237 236 236 236 236 235 235 235 235 236 236 236 237 238 239 240 241 243 244 245 245 245 245 244 244 244
243 242 241 240 240 240 240 240 241 241 242 242 242 242 242 242 242 243 243 244 244 244 244 245 245 245 246 246 246 245 244 243 241 240 239 238 236 235 235 235 234 234 234 234 234 234 234 236 236 236 236 236 236 236 236 235 235 235 236 236 237 238 239 240 241 242 243 244 245 245 245 245 244 244
239 240 240 240 240 240 240 240 240 241 241 241 242 242 242 242 242 242 242 242 242 242 242 242 243 243 243 244 244 245 244 243 242 241 239 238 237 235 234 233 233 233 233 233 233 233 233 234 235 236 236 236 236 236 236 236 236 236 236 236 237 237 238 240 241 242 243 244 244 245 245 245 245 244
239 239 239 240 241 242 241 240 241 241 241 242 242 242 242 242 242 242 242 242 242 242 241 241 241 241 241 241 242 242 243 242 242 240 239 238 236 235 233 232 232 232 232 232 232 233 232 232 233 235 236 236 237 236 236 236 236 236 236 236 236 237 238 239 240 241 242 243 244 245 245 246 245 245
241 240 238 238 241 242 242 241 240 241 242 242 241 241 240 240 241 241 241 241 241 241 241 240 240 240 240 240 239 239 240 240 239 237 236 235 235 234 232 231 231 230 231 231 231 232 232 232 232 233 234 235 236 236 237 237 236 236 236 236 236 237 237 238 239 240 241 242 242 243 244 245 246 246
241 240 238 237 238 239 239 238 238 240 241 241 240 239 238 238 238 238 238 238 239 239 240 239 238 238 238 238 238 237 237 237 236 234 232 232 232 232 231 230 230 229 229 229 230 230 231 231 231 231 232 233 234 234 235 237 238 237 236 236 236 237 237 237 238 239 240 241 242 242 243 244 245 246
244 243 241 238 238 237 235 234 236 239 240 240 239 238 237 236 235 234 234 235 235 237 238 238 237 236 236 237 237 237 236 236 235 233 230 228 228 229 228 228 228 227 227 228 228 229 229 230 230 230 230 231 232 232 231 233 236 237 237 237 237 237 237 237 237 238 239 240 241 241 242 243 244 245
246 245 245 244 243 241 237 235 236 237 237 237 236 235 235 235 233 232 232 232 232 233 235 235 234 232 232 233 235 235 235 235 235 233 230 227 226 226 225 225 225 225 226 226 227 228 228 228 228 228 229 230 229 229 229 230 232 234 236 237 238 238 238 238 238 238 238 239 240 240 241 242 243 244
244 243 244 246 246 244 240 238 237 236 235 235 234 232 231 233 231 228 228 229 229 230 230 229 227 225 226 229 232 233 233 233 234 233 230 228 226 225 224 223 223 223 224 225 226 226 227 228 227 226 227 230 229 228 229 230 230 232 233 235 237 238 239 239 238 238 238 239 239 240 241 241 242 243
243 240 240 241 242 243 243 242 239 236 235 234 233 231 229 231 229 225 223 222 223 224 222 220 218 218 222 226 229 231 231 231 232 233 231 229 227 225 224 223 223 223 223 224 224 226 226 227 227 225 224 227 229 228 229 231 231 231 231 231 233 235 236 238 238 239 239 239 239 240 241 242 242 243
238 238 239 239 240 241 242 243 242 240 237 235 233 230 229 228 227 224 220 214 211 210 211 212 213 213 217 221 223 226 227 229 231 232 231 230 228 227 225 223 223 222 223 223 223 224 225 225 226 225 223 223 226 227 228 230 231 231 231 230 230 230 232 234 237 238 238 239 240 240 240 241 242 243
239 236 238 240 241 241 241 242 243 243 242 239 236 233 229 226 225 225 223 216 211 209 209 211 212 213 216 220 222 224 224 225 228 230 231 230 228 227 226 224 223 222 222 223 223 223 224 225 225 225 223 222 223 225 226 226 226 228 230 231 230 230 231 232 234 236 238 239 240 241 241 241 241 242
255 246 241 243 244 243 241 241 242 242 242 241 240 238 234 229 225 225 225 224 221 219 217 216 216 217 219 220 222 223 219 217 221 224 227 229 228 227 226 225 224 223 222 222 223 223 223 224 224 225 224 222 222 223 225 225 224 224 226 227 229 230 231 232 233 235 237 239 240 241 242 241 241 242
267 262 256 253 252 250 248 247 245 243 241 241 240 240 239 235 230 227 226 226 227 226 225 224 222 222 223 223 223 221 213 210 215 217 219 223 224 224 224 224 224 224 223 222 222 223 223 224 224 224 224 224 223 222 223 224 224 223 224 224 225 227 229 231 232 233 235 236 237 238 240 241 242 242
276 271 265 259 255 251 250 249 247 245 243 241 240 240 240 238 236 233 230 228 228 228 228 228 227 227 227 224 222 217 210 208 214 216 215 217 218 219 219 220 222 224 224 223 222 223 223 223 224 224 224 224 224 224 224 225 226 225 225 225 226 227 227 228 229 231 232 234 235 235 236 238 240 242
282 280 275 270 266 263 260 258 256 254 251 247 243 240 239 238 237 237 235 233 231 230 228 227 226 226 226 225 222 217 210 208 213 217 216 215 215 215 216 217 218 220 223 224 223 223 223 224 224 224 224 225 226 226 226 227 228 228 228 228 229 231 231 230 230 231 232 233 234 235 235 236 237 239
21 334 301 286 279 275 272 270 268 268 268 266 260 254 247 242 238 237 236 235 235 234 232 229 226 225 224 224 222 218 213 209 211 215 216 215 214 214 215 216 216 216 219 223 224 224 224 225 225 224 225 225 226 227 228 229 230 231 231 231 231 233 234 234 233 233 234 236 236 236 237 237 237 238
60 56 44 22 338 302 281 269 266 266 266 265 264 262 259 254 249 243 238 236 235 233 232 231 229 228 227 225 224 221 216 212 212 213 215 216 216 216 217 218 218 216 215 218 223 224 225 225 226 226 225 226 227 228 229 229 230 231 232 232 233 234 235 236 236 236 237 238 239 239 239 239 239 240
20 7 345 320 297 285 278 270 265 261 256 253 253 253 254 254 254 251 247 243 239 235 231 228 228 228 228 228 228 226 221 216 214 214 215 217 219 221 222 222 222 220 218 217 219 222 224 225 226 226 226 226 227 228 228 228 229 231 232 233 233 234 235 236 237 237 238 239 240 241 241 241 241 241
329 318 307 298 288 280 275 271 270 268 264 261 257 253 250 246 244 244 244 244 243 241 236 231 228 226 225 226 228 229 226 221 218 217 218 218 220 222 225 225 224 223 222 220 220 221 222 223 225 226 226 227 227 228 228 228 228 229 230 232 232 233 233 235 236 237 238 239 240 240 241 241 241 241
314 308 303 298 292 285 278 274 271 270 269 266 264 261 257 251 246 242 240 240 240 240 239 237 234 230 227 225 226 227 227 224 222 221 221 222 223 223 225 227 227 225 223 222 221 221 222 223 224 225 226 227 227 228 228 228 228 228 229 230 231 231 231 232 233 234 235 236 237 238 239 240 240 240
311 307 302 296 292 287 283 280 276 274 271 269 267 265 261 258 254 250 246 242 239 237 237 237 237 236 234 231 229 228 226 224 222 222 223 226 227 227 227 228 229 228 225 223 223 223 223 223 224 225 227 228 228 228 229 229 230 230 230 230 231 231 230 230 231 232 233 234 234 235 235 237 238 238
308 304 299 293 288 283 279 278 278 277 276 274 269 265 262 261 258 255 251 248 244 239 235 234 234 236 237 236 234 232 230 227 224 222 222 224 226 228 229 229 231 231 229 226 226 226 225 223 223 225 227 229 230 230 230 230 230 231 231 231 232 232 231 231 231 233 235 236 236 235 235 235 237 238
306 305 303 300 296 291 288 287 286 286 284 281 278 275 271 266 261 255 250 247 245 242 237 233 230 230 232 234 235 233 231 229 227 224 223 223 223 224 226 228 230 231 231 230 230 230 227 225 224 225 226 228 230 231 232 231 231 231 232 232 232 233 233 233 232 233 235 236 237 237 237 237 237 238
311 311 312 311 308 305 301 298 296 295 294 292 290 287 281 271 262 254 247 242 240 239 238 234 230 226 226 227 229 230 229 229 228 226 224 223 222 221 222 224 226 228 229 230 232 232 230 228 227 228 228 229 231 233 234 234 234 233 233 233 233 233 234 234 233 233 233 234 236 237 238 239 239 239
321 321 320 317 315 311 308 307 307 306 303 302 302 298 287 273 261 251 244 238 234 232 233 233 230 226 223 222 223 224 226 227 228 227 226 224 222 221 221 221 222 223 225 226 228 230 231 230 230 231 231 232 233 235 236 237 237 236 236 236 235 235 235 236 235 235 235 235 236 237 239 240 240 241
334 334 332 329 326 321 319 318 316 311 309 311 314 310 294 273 258 247 240 235 230 226 225 226 227 225 222 221 221 220 221 223 224 226 227 225 223 221 220 220 220 221 223 224 226 228 229 229 231 232 233 234 235 236 237 238 238 239 238 238 238 237 237 237 238 238 238 238 238 239 240 241 242 243
343 342 340 339 336 332 329 325 320 318 319 326 331 329 310 279 260 245 236 231 226 221 218 218 221 222 221 220 220 219 218 218 218 220 222 224 224 222 221 220 220 220 221 223 225 226 227 228 229 231 233 234 235 236 237 238 239 240 241 241 240 240 240 240 240 240 240 240 241 241 242 243 244 245
350 348 347 347 344 340 338 334 331 331 334 340 346 349 343 316 277 242 227 221 218 215 212 212 215 218 219 218 219 218 217 216 216 216 216 217 220 220 219 219 220 220 221 223 224 225 226 226 228 230 232 233 234 236 237 238 239 241 242 243 243 243 242 242 243 242 242 242 243 243 244 244 246 247
356 352 352 352 349 347 346 344 343 344 348 352 357 3 10 12 355 226 207 201 199 202 204 205 209 214 216 218 218 218 217 216 217 216 215 215 214 214 214 215 216 217 219 221 223 224 226 227 228 230 232 233 234 236 237 238 239 240 241 242 244 244 244 244 245 245 245 245 245 245 245 246 247 248
357 354 354 355 354 353 353 353 352 353 359 4 7 12 23 35 45 84 179 185 186 189 193 197 203 209 213 217 219 219 217 218 218 217 217 216 216 214 213 213 213 215 216 218 220 222 223 225 227 229 231 232 234 235 237 238 239 240 240 241 242 244 244 244 245 246 247 247 247 247 248 248 248 249
354 351 351 354 357 357 357 359 360 1 6 14 17 20 28 41 53 68 109 163 182 190 194 198 203 207 211 215 218 219 218 219 220 219 219 219 218 218 218 217 218 219 219 220 222 224 225 227 228 230 232 233 234 236 237 238 239 240 240 241 242 243 244 244 245 246 247 247 248 248 249 249 249 250
346 341 341 346 353 358 360 3 7 8 10 16 22 28 34 42 52 63 77 103 143 174 191 200 206 209 211 214 217 218 219 220 220 220 220 221 221 220 221 222 222 223 223 224 226 228 229 231 233 235 236 237 238 238 239 241 241 242 242 243 244 245 245 245 246 247 247 247 248 248 248 248 249 249
336 332 333 337 344 353 359 3 9 13 16 18 22 29 38 45 52 59 68 79 96 120 150 177 193 202 208 212 214 216 218 220 220 221 221 222 222 222 223 224 226 228 228 229 230 232 234 236 238 240 241 241 241 241 242 243 245 246 246 246 246 248 248 249 248 248 249 249 249 248 248 248 248 249
327 325 326 329 334 344 353 358 5 13 19 23 25 29 37 45 53 59 66 73 81 91 105 124 148 171 187 197 204 209 212 215 217 219 221 222 223 223 224 226 228 230 232 233 235 237 239 240 241 242 243 243 242 243 244 246 247 249 250 250 250 250 250 251 251 251 251 251 251 251 251 250 250 250
320 317 317 321 326 334 343 352 359 7 16 23 28 32 38 44 51 58 66 73 79 85 92 101 112 127 146 164 179 190 199 205 209 212 216 219 221 222 223 226 228 231 233 234 236 237 238 239 239 240 241 242 243 244 245 246 247 249 251 253 253 252 251 251 252 252 252 252 252 252 252 252 252 252
314 309 305 308 315 323 333 345 354 2 11 20 27 33 39 45 51 57 63 70 78 85 93 100 107 115 125 136 148 159 170 180 188 195 200 204 208 211 214 217 220 223 225 227 229 231 234 237 239 241 243 245 246 246 246 247 248 248 249 251 253 254 253 252 252 253 253 253 254 255 255 256 256 255
304 297 293 294 300 309 321 334 348 360 11 21 30 36 40 46 52 57 63 69 75 83 91 100 109 120 130 138 146 154 162 169 175 181 187 192 196 201 205 209 213 218 222 225 228 234 238 241 243 245 247 248 249 249 249 249 249 249 248 249 251 254 255 256 255 255 256 256 256 257 258 259 259 259
293 282 277 277 282 291 303 317 338 360 14 25 36 44 50 53 55 58 61 67 73 79 87 96 105 117 129 140 150 158 167 175 180 186 191 196 201 206 210 213 217 222 226 228 232 237 241 244 246 249 250 252 253 253 253 253 253 253 253 253 252 254 256 258 258 258 258 258 259 259 259 260 260 260
285 269 260 257 256 259 267 277 302 328 343 3 32 59 70 71 71 72 71 71 74 78 82 90 98 108 119 132 147 159 169 178 185 190 195 201 206 211 215 218 222 227 230 233 235 239 244 248 252 255 257 258 259 260 261 261 261 261 262 262 261 262 263 264 264 264 264 265 265 264 264 263 263 262
277 260 247 239 236 237 243 248 255 265 271 272 251 164 125 113 109 105 101 101 100 99 100 102 105 110 119 130 147 166 180 192 199 204 210 215 220 225 228 232 235 239 243 246 248 251 254 258 260 262 263 265 266 266 267 267 267 268 268 269 269 269 269 269 270 270 270 269 269 268 267 266 266 265